Regional Weather Roundup
Issued by NWS Jackson, KY

Home | Current Version | Previous Version | Text Only | Print | Product List | Glossary Off
Versions: 1 2 3 4 5 6 7 8 9 10 11 12 13 14 15 16 17 18 19 20 21 22 23 24 25 26 27 28 29 30 31 32 33 34 35 36 37 38 39 40 41 42 43 44 45 46 47 48 49 50

000
ASUS43 KJKL 060110
RWRJKL

EAST KENTUCKY HOURLY WEATHER ROUNDUP
NATIONAL WEATHER SERVICE JACKSON KY
800 PM EST THU MAR 05 2015

NOTE: "FAIR" INDICATES FEW OR NO CLOUDS BELOW 12,000 FEET WITH
NO SIGNIFICANT WEATHER AND/OR OBSTRUCTIONS TO VISIBILITY.

* THESE REPORTS ARE NOT UNDER NWS QUALITY CONTROL AND MAY NOT
  REPORT WEATHER SUCH AS PRECIPITATION AND FOG.

KYZ079-080-083-085-087-088-110-112-115-119-120-060200
...EASTERN KENTUCKY...

CITY           SKY/WX    TMP DP  RH WIND       PRES   REMARKS
JACKSON        CLEAR     16   9  74 N3        30.45R
LONDON         PTCLDY    17   9  70 CALM      30.46R
SOMERSET*      CLEAR     18  12  79 CALM      30.51R
MONTICELLO*    PTCLDY     8   5  87 CALM      30.52R
MIDDLESBORO*   CLOUDY    22  16  78 N7        30.45R WCI  13
HAZARD APT*    CLEAR     18  12  79 CALM      30.46R
PIKEVILLE APT* FLURRIES  18  12  79 N3        30.44R
BIG SANDY*     MIX PCPN  18  15  88 N3        30.46R
MOREHEAD APT*  PTCLDY    16   9  73 CALM      30.50R
$$

KYZ035-036-041-042-044-050-067-078-099-060200
...CENTRAL KENTUCKY...

CITY           SKY/WX    TMP DP  RH WIND       PRES   REMARKS
MT STERLING*   PTCLDY    12  10  92 CALM      30.50R
FLEMING/MASON* CLEAR     14   7  73 N6        30.50R WCI   5
DANVILLE*      PTCLDY    12  10  92 CALM      30.49S
RICHMOND*      PTCLDY    16  10  79 E3        30.48R
LEXINGTON      FLURRIES  17  11  77 CALM      30.49R
FRANKFORT      CLEAR     18  10  71 N5        30.49R WCI  11
$$

KYZ091>093-OHZ055-061-077-WVZ005-015-034-035-042-060200
...SOUTHERN OHIO/WEST VIRGINIA...

CITY           SKY/WX    TMP DP  RH WIND       PRES   REMARKS
COVINGTON      CLEAR     18   4  54 N8        30.50R WCI   8
COLUMBUS       PTCLDY    16   4  59 N7        30.50R WCI   6
DAYTON         CLEAR     16   5  62 CALM      30.50R
WILMINGTON     CLEAR     13   1  59 N7        30.49R WCI   3
HUNTINGTON     CLEAR     17  11  77 N5        30.48R WCI  10
CHARLESTON     LGT SNOW  20  16  84 NW6       30.46R FOG     WCI  12
PINEVILLE*     FLURRIES  22  19  89 MISG      30.42R
BECKLEY        CLOUDY    15   9  76 NW13      30.31R WCI   1
BLUEFIELD      CLOUDY    19  13  77 NW9       30.27R WCI   8
$$

VAZ002-007-008-TNZ017-027-036-066-071-060200
...SOUTHWEST VIRGINIA/EAST TENNESSEE...

CITY           SKY/WX    TMP DP  RH WIND       PRES   REMARKS
WISE*          FLURRIES  18  18 100 N10       30.32R WCI   6
JONESVILLE*    CLOUDY    23  18  80 NW5       30.42R WCI  17
ABINGDON*      CLOUDY    24  19  83 N8        30.32R WCI  15
BRISTOL        CLOUDY    24  19  81 N9        30.36R WCI  14
KNOXVILLE      CLOUDY    25  20  81 N16       30.40R WCI  12
OAK RIDGE      MOCLDY    24  17  74 VRB6      30.45R WCI  17
CROSSVILLE     CLOUDY    19  13  77 N9G20     30.39R WCI   8
NASHVILLE      CLEAR     22  12  65 N9        30.52R WCI  12
$$

...KEY TO REMARKS...
VSB - VISIBILITY IN MILES
WCI - WIND CHILL INDEX
HX  - HEAT INDEX

$$



USA.gov is the U.S. government's official web portal to all federal, state and local government web resources and services.